| time (UTC) | temp C | wind direction | speed KPH | gust KPH | rain 1hr cm | rain 24hr cm | rain mn cm | humidity % | barometer mb |
| 20260504201217 | 16 | 203 | 19.3 | 27.4 | 0.00 | 0.00 | 0.00 | 34 | 1013.1 |
| 20260504200217 | 16 | 203 | 29.0 | 37.0 | 0.00 | 0.00 | 0.00 | 31 | 1013.8 |
| 20260504195218 | 16 | 225 | 25.7 | 40.2 | 0.00 | 0.00 | 0.00 | 29 | 1013.6 |
| 20260504194217 | 16 | 203 | 32.2 | 40.2 | 0.00 | 0.00 | 0.00 | 28 | 1013.3 |
| 20260504193217 | 16 | 203 | 25.7 | 32.2 | 0.00 | 0.00 | 0.00 | 32 | 1013.8 |
| 20260504192218 | 15 | 203 | 32.2 | 40.2 | 0.00 | 0.00 | 0.00 | 31 | 1013.6 |
| 20260504191237 | 15 | 225 | 17.7 | 32.2 | 0.00 | 0.00 | 0.00 | 35 | 1012.9 |
| 20260504190218 | 15 | 203 | 22.5 | 35.4 | 0.00 | 0.00 | 0.00 | 39 | 1013.6 |
| 20260504185258 | 14 | 203 | 20.9 | 29.0 | 0.00 | 0.00 | 0.00 | 41 | 1013.5 |
| 20260504184217 | 13 | 203 | 19.3 | 29.0 | 0.00 | 0.00 | 0.00 | 45 | 1013.5 |
| 20260504183217 | 13 | 203 | 19.3 | 29.0 | 0.00 | 0.00 | 0.00 | 43 | 1013.6 |
| 20260504182218 | 13 | 203 | 19.3 | 27.4 | 0.00 | 0.00 | 0.00 | 47 | 1013.9 |
| 20260504181217 | 12 | 180 | 20.9 | 30.6 | 0.00 | 0.00 | 0.00 | 48 | 1013.7 |
| 20260504180237 | 12 | 180 | 19.3 | 25.7 | 0.00 | 0.00 | 0.00 | 49 | 1013.5 |
| 20260504175217 | 12 | 203 | 20.9 | 25.7 | 0.00 | 0.00 | 0.00 | 48 | 1013.7 |
| 20260504174217 | 11 | 180 | 17.7 | 30.6 | 0.00 | 0.00 | 0.00 | 49 | 1013.2 |
| 20260504173217 | 11 | 203 | 20.9 | 33.8 | 0.00 | 0.00 | 0.00 | 49 | 1013.9 |
| 20260504172217 | 11 | 203 | 24.1 | 29.0 | 0.00 | 0.00 | 0.00 | 51 | 1013.4 |
| 20260504171218 | 11 | 203 | 19.3 | 30.6 | 0.00 | 0.00 | 0.00 | 52 | 1013.6 |
| 20260504170217 | 11 | 203 | 17.7 | 24.1 | 0.00 | 0.00 | 0.00 | 51 | 1013.4 |
| 20260504160217 | 11 | 203 | 12.9 | 19.3 | 0.00 | 0.00 | 0.00 | 53 | 1013.4 |
| 20260504150219 | 10 | 248 | 12.9 | 17.7 | 0.00 | 0.00 | 0.00 | 48 | 1012.9 |
| 20260504141239 | 10 | 203 | 9.7 | 14.5 | 0.00 | 0.00 | 0.00 | 46 | 1013.4 |
| 20260504140239 | 10 | 203 | 19.3 | 30.6 | 0.00 | 0.00 | 0.00 | 45 | 1013.5 |
| 20260504130238 | 10 | 203 | 17.7 | 25.7 | 0.00 | 0.00 | 0.00 | 39 | 1013.4 |
| 20260504120218 | 10 | 203 | 20.9 | 30.6 | 0.00 | 0.00 | 0.00 | 41 | 1013.8 |
| 20260504110239 | 10 | 203 | 25.7 | 33.8 | 0.00 | 0.00 | 0.00 | 45 | 1014.5 |
| 20260504100238 | 10 | 203 | 20.9 | 30.6 | 0.00 | 0.00 | 0.00 | 46 | 1015.3 |
| 20260504081237 | 12 | 203 | 20.9 | 30.6 | 0.00 | 0.00 | 0.00 | 36 | 1015.8 |
| 20260504080217 | 12 | 203 | 22.5 | 37.0 | 0.00 | 0.00 | 0.00 | 35 | 1015.8 |
| 20260504070345 | 13 | 203 | 17.7 | 24.1 | 0.00 | 0.00 | 0.00 | 34 | 1016.4 |
| 20260504060238 | 14 | 225 | 17.7 | 24.1 | 0.00 | 0.00 | 0.00 | 30 | 1016.1 |
| 20260504050238 | 15 | 203 | 9.7 | 14.5 | 0.00 | 0.00 | 0.00 | 26 | 1016.6 |
| 20260504045237 | 15 | 203 | 14.5 | 27.4 | 0.00 | 0.00 | 0.00 | 26 | 1016.6 |
| 20260504044216 | 15 | 225 | 8.0 | 11.3 | 0.00 | 0.00 | 0.00 | 26 | 1016.7 |
| 20260504043216 | 15 | 203 | 14.5 | 20.9 | 0.00 | 0.00 | 0.00 | 26 | 1015.8 |
| 20260504042217 | 16 | 203 | 16.1 | 24.1 | 0.00 | 0.00 | 0.00 | 26 | 1016.0 |
| 20260504041217 | 16 | 203 | 16.1 | 22.5 | 0.00 | 0.00 | 0.00 | 26 | 1016.0 |
| 20260504040237 | 16 | 180 | 22.5 | 29.0 | 0.00 | 0.00 | 0.00 | 27 | 1015.2 |
| 20260504035216 | 16 | 203 | 11.3 | 16.1 | 0.00 | 0.00 | 0.00 | 27 | 1015.0 |
| 20260504034237 | 16 | 203 | 20.9 | 27.4 | 0.00 | 0.00 | 0.00 | 27 | 1015.0 |
| 20260504033216 | 15 | 225 | 17.7 | 25.7 | 0.00 | 0.00 | 0.00 | 27 | 1014.6 |
| 20260504032216 | 15 | 203 | 12.9 | 17.7 | 0.00 | 0.00 | 0.00 | 29 | 1014.5 |
| 20260504031216 | 15 | 203 | 14.5 | 20.9 | 0.00 | 0.00 | 0.00 | 29 | 1014.3 |
| 20260504030216 | 16 | 180 | 11.3 | 14.5 | 0.00 | 0.00 | 0.00 | 29 | 1013.9 |
| 20260504025218 | 16 | 203 | 16.1 | 22.5 | 0.00 | 0.00 | 0.00 | 29 | 1013.9 |
| 20260504024220 | 16 | 203 | 12.9 | 20.9 | 0.00 | 0.00 | 0.00 | 30 | 1013.6 |
| 20260504023239 | 16 | 203 | 12.9 | 16.1 | 0.00 | 0.00 | 0.00 | 30 | 1012.7 |
| 20260504022219 | 16 | 203 | 14.5 | 16.1 | 0.00 | 0.00 | 0.00 | 30 | 1012.9 |
| 20260504021219 | 16 | 225 | 19.3 | 29.0 | 0.00 | 0.00 | 0.00 | 30 | 1013.0 |
| 20260504020239 | 17 | 203 | 14.5 | 17.7 | 0.00 | 0.00 | 0.00 | 30 | 1011.3 |
| 20260504015218 | 17 | 203 | 14.5 | 22.5 | 0.00 | 0.00 | 0.00 | 30 | 1011.7 |
| 20260504014219 | 17 | 203 | 22.5 | 27.4 | 0.00 | 0.00 | 0.00 | 29 | 1011.8 |
| 20260504013219 | 17 | 203 | 19.3 | 27.4 | 0.00 | 0.00 | 0.00 | 28 | 1010.8 |
| 20260504012219 | 18 | 203 | 17.7 | 25.7 | 0.00 | 0.00 | 0.00 | 26 | 1010.8 |
| 20260504011219 | 18 | 203 | 19.3 | 25.7 | 0.00 | 0.00 | 0.00 | 26 | 1010.9 |
| 20260504010218 | 18 | 225 | 16.1 | 25.7 | 0.00 | 0.00 | 0.00 | 25 | 1011.4 |
| 20260504005218 | 19 | 203 | 17.7 | 27.4 | 0.00 | 0.00 | 0.00 | 23 | 1011.5 |
| 20260504004219 | 20 | 158 | 9.7 | 17.7 | 0.00 | 0.00 | 0.00 | 23 | 1011.9 |
| 20260504003219 | 19 | 158 | 9.7 | 24.1 | 0.00 | 0.00 | 0.00 | 24 | 1011.5 |
| 20260504002219 | 18 | 135 | 4.8 | 8.0 | 0.00 | 0.00 | 0.00 | 25 | 1011.5 |
| 20260504001218 | 18 | 180 | 12.9 | 24.1 | 0.00 | 0.00 | 0.00 | 24 | 1011.7 |
| 20260504000219 | 19 | 203 | 22.5 | 29.0 | 0.00 | 0.00 | 0.00 | 24 | 1012.0 |
| 20260503235219 | 19 | 203 | 17.7 | 22.5 | 0.00 | 0.00 | 0.00 | 25 | 1012.3 |
| 20260503234219 | 19 | 203 | 12.9 | 20.9 | 0.00 | 0.00 | 0.00 | 26 | 1012.5 |
| 20260503233239 | 19 | 180 | 9.7 | 16.1 | 0.00 | 0.00 | 0.00 | 25 | 1012.4 |
| 20260503232218 | 20 | 180 | 9.7 | 19.3 | 0.00 | 0.00 | 0.00 | 24 | 1012.4 |
| 20260503231218 | 20 | 113 | 3.2 | 4.8 | 0.00 | 0.00 | 0.00 | 25 | 1012.4 |
| 20260503230218 | 20 | 203 | 16.1 | 25.7 | 0.00 | 0.00 | 0.00 | 25 | 1013.6 |
| 20260503225217 | 20 | 203 | 20.9 | 29.0 | 0.00 | 0.00 | 0.00 | 23 | 1013.4 |
| 20260503224218 | 21 | 158 | 8.0 | 19.3 | 0.00 | 0.00 | 0.00 | 24 | 1014.1 |
| 20260503223217 | 21 | 203 | 11.3 | 27.4 | 0.00 | 0.00 | 0.00 | 24 | 1014.6 |
| 20260503222238 | 21 | 180 | 12.9 | 17.7 | 0.00 | 0.00 | 0.00 | 23 | 1015.1 |
| 20260503221217 | 21 | 158 | 9.7 | 19.3 | 0.00 | 0.00 | 0.00 | 24 | 1015.2 |
| 20260503220218 | 21 | 180 | 6.4 | 14.5 | 0.00 | 0.00 | 0.00 | 23 | 1015.7 |
| 20260503215219 | 21 | 203 | 14.5 | 24.1 | 0.00 | 0.00 | 0.00 | 24 | 1016.1 |
| 20260503214217 | 21 | 203 | 16.1 | 22.5 | 0.00 | 0.00 | 0.00 | 25 | 1016.1 |
| 20260503213238 | 21 | 180 | 11.3 | 20.9 | 0.00 | 0.00 | 0.00 | 25 | 1016.9 |
| 20260503212218 | 21 | 180 | 19.3 | 33.8 | 0.00 | 0.00 | 0.00 | 25 | 1017.0 |
| 20260503211218 | 21 | 158 | 14.5 | 32.2 | 0.00 | 0.00 | 0.00 | 23 | 1017.3 |
| 20260503210217 | 22 | 203 | 22.5 | 33.8 | 0.00 | 0.00 | 0.00 | 21 | 1017.8 |
| 20260503205218 | 22 | 158 | 8.0 | 14.5 | 0.00 | 0.00 | 0.00 | 24 | 1017.9 |
| 20260503204218 | 21 | 135 | 6.4 | 9.7 | 0.00 | 0.00 | 0.00 | 23 | 1018.2 |
| 20260503203239 | 21 | 203 | 19.3 | 27.4 | 0.00 | 0.00 | 0.00 | 23 | 1018.4 |
| 20260503202218 | 21 | 203 | 17.7 | 27.4 | 0.00 | 0.00 | 0.00 | 24 | 1018.4 |